Tracking 20711 objects as of 30-May-2020
HD Live streaming from Space Station
objects crossing your sky now

FENGYUN 1C DEB

Track FENGYUN 1C DEB now!
10-day predictions


NORAD ID: 31044
Int'l Code: 1999-025BEN
Perigee: 544.7 km
Apogee: 618.4 km
Inclination: 99.4 °
Period: 96.2 minutes
Semi major axis: 6952 km
RCS: 0.0074 m2 (small)
Launch date: May 10, 1999
Source: People's Republic of China (PRC)
Launch site: Taiyaun Space Center, China (TSC)

Note: This is SATELLITE DEBRIS
aabbcc
Your satellite tracking list
Your tracking list is empty




NASA's NSSDC Master Catalog

Two Line Element Set (TLE):
1 31044U 99025BEN 20150.53191169  .00003434  00000-0  29297-3 0  9996
2 31044  99.4305 187.6637 0053024 338.8887  21.0141 14.97567640705045
Source of the keplerian elements: AFSPC